START_TIME,STEP,MOV.,P11,t_acc.,P23,t_acc.,P27,t_acc.,A4,t_acc.
1979-07-28 03:00:22.310 ,1,0,2.,4.8,0.,4.8,0.,4.8,0.,4.8
1979-07-28 03:00:27.110 ,1,0,4.,4.8,0.,4.8,0.,4.8,0.,4.8
1979-07-28 03:00:31.910 ,1,0,8.,4.8,0.,4.8,0.,4.8,0.,4.8
1979-07-28 03:00:36.710 ,1,0,3.,4.8,0.,4.8,0.,4.8,0.,4.8
1979-07-28 03:00:41.510 ,1,0,1.,4.8,0.,4.8,0.,4.8,0.,4.8
1979-07-28 03:00:46.310 ,2,0,9.,4.8,1.,4.8,1.,4.8,0.,4.8
1979-07-28 03:00:51.110 ,2,0,5.,4.8,0.,4.8,0.,4.8,0.,4.8
1979-07-28 03:00:55.910 ,2,0,2.,4.8,0.,4.8,0.,4.8,0.,4.8
1979-07-28 03:01:00.710 ,2,0,5.,4.8,0.,4.8,0.,4.8,0.,4.8
1979-07-28 03:01:05.510 ,2,0,8.,4.8,0.,4.8,0.,4.8,0.,4.8
1979-07-28 03:01:10.310 ,2,0,1.,4.8,0.,4.8,0.,4.8,0.,4.8
1979-07-28 03:01:15.110 ,2,0,4.,4.8,0.,4.8,0.,4.8,0.,4.8
1979-07-28 03:01:19.910 ,2,0,2.,4.8,0.,4.8,0.,4.8,0.,4.8
1979-07-28 03:01:24.710 ,2,0,4.,4.8,0.,4.8,0.,4.8,0.,4.8
1979-07-28 03:01:29.510 ,2,0,2.,4.8,0.,4.8,0.,4.8,0.,4.8
1979-07-28 03:01:34.310 ,3,0,6.,4.8,0.,4.8,0.,4.8,0.,4.8
1979-07-28 03:01:39.110 ,3,0,7.,4.8,0.,4.8,0.,4.8,0.,4.8
1979-07-28 03:01:43.910 ,3,0,4.,4.8,0.,4.8,0.,4.8,0.,4.8
1979-07-28 03:01:48.710 ,3,0,4.,4.8,0.,4.8,0.,4.8,0.,4.8
1979-07-28 03:01:53.510 ,3,0,5.,4.8,0.,4.8,0.,4.8,0.,4.8
1979-07-28 03:01:58.310 ,3,0,3.,4.8,0.,4.8,0.,4.8,0.,4.8
1979-07-28 03:02:03.110 ,3,0,3.,4.8,0.,4.8,1.,4.8,0.,4.8
1979-07-28 03:02:07.910 ,3,0,1.,4.8,0.,4.8,0.,4.8,0.,4.8
1979-07-28 03:02:12.710 ,3,0,4.,4.8,0.,4.8,0.,4.8,0.,4.8
1979-07-28 03:02:17.510 ,3,0,3.,4.8,0.,4.8,0.,4.8,0.,4.8
1979-07-28 03:02:22.310 ,4,0,4.,4.8,0.,4.8,0.,4.8,0.,4.8
1979-07-28 03:02:27.110 ,4,0,6.,4.8,0.,4.8,0.,4.8,0.,4.8
1979-07-28 03:02:31.910 ,4,0,3.,4.8,0.,4.8,0.,4.8,0.,4.8
1979-07-28 03:02:36.710 ,4,0,3.,4.8,0.,4.8,0.,4.8,0.,4.8
1979-07-28 03:02:41.510 ,4,0,4.,4.8,0.,4.8,0.,4.8,0.,4.8
1979-07-28 03:02:46.310 ,4,0,7.,4.8,0.,4.8,0.,4.8,0.,4.8
1979-07-28 03:02:51.110 ,4,0,5.,4.8,0.,4.8,0.,4.8,0.,4.8
1979-07-28 03:02:55.910 ,4,0,2.,4.8,0.,4.8,0.,4.8,0.,4.8
1979-07-28 03:03:00.710 ,4,0,4.,4.8,0.,4.8,0.,4.8,0.,4.8
1979-07-28 03:03:05.510 ,4,0,1.,4.8,0.,4.8,0.,4.8,0.,4.8
1979-07-28 03:03:10.310 ,5,0,3.,4.8,0.,4.8,0.,4.8,0.,4.8
1979-07-28 03:03:15.110 ,5,0,2.,4.8,0.,4.8,0.,4.8,0.,4.8
1979-07-28 03:03:19.910 ,5,0,4.,4.8,0.,4.8,0.,4.8,0.,4.8
1979-07-28 03:03:24.710 ,5,0,5.,4.8,0.,4.8,0.,4.8,0.,4.8
1979-07-28 03:03:29.510 ,5,0,5.,4.8,0.,4.8,0.,4.8,0.,4.8
1979-07-28 03:03:34.310 ,5,0,1.,4.8,0.,4.8,0.,4.8,0.,4.8
1979-07-28 03:03:39.110 ,5,0,,0,,0,,0,,0
1979-07-28 03:03:43.910 ,5,0,,0,,0,,0,,0
1979-07-28 03:03:48.710 ,5,0,,0,,0,,0,,0
1979-07-28 03:03:53.510 ,5,0,2.,4.8,0.,4.8,0.,4.8,0.,4.8
1979-07-28 03:03:58.310 ,6,0,3.,4.8,0.,4.8,0.,4.8,0.,4.8
1979-07-28 03:04:03.110 ,6,0,4.,4.8,0.,4.8,0.,4.8,0.,4.8
1979-07-28 03:04:07.910 ,6,0,1.,4.8,0.,4.8,0.,4.8,0.,4.8
1979-07-28 03:04:12.710 ,6,0,0.,4.8,0.,4.8,1.,4.8,0.,4.8
1979-07-28 03:04:17.510 ,6,0,3.,4.8,0.,4.8,1.,4.8,0.,4.8
1979-07-28 03:04:22.310 ,6,0,4.,4.8,0.,4.8,0.,4.8,0.,4.8
1979-07-28 03:04:27.110 ,6,0,2.,4.8,0.,4.8,0.,4.8,0.,4.8
1979-07-28 03:04:31.910 ,6,0,7.,4.8,0.,4.8,0.,4.8,0.,4.8
1979-07-28 03:04:36.710 ,6,0,5.,4.8,0.,4.8,0.,4.8,0.,4.8
1979-07-28 03:04:41.510 ,6,0,1.,4.8,0.,4.8,0.,4.8,0.,4.8
1979-07-28 03:04:46.310 ,7,0,2.,4.8,1.,4.8,0.,4.8,0.,4.8
1979-07-28 03:04:51.110 ,7,0,6.,4.8,0.,4.8,1.,4.8,0.,4.8
1979-07-28 03:04:55.910 ,7,0,3.,4.8,0.,4.8,0.,4.8,0.,4.8
1979-07-28 03:05:00.710 ,7,0,2.,4.8,0.,4.8,0.,4.8,0.,4.8
1979-07-28 03:05:05.510 ,7,0,3.,4.8,0.,4.8,0.,4.8,0.,4.8
1979-07-28 03:05:10.310 ,7,0,1.,4.8,0.,4.8,0.,4.8,0.,4.8
1979-07-28 03:05:15.110 ,7,0,2.,4.8,0.,4.8,0.,4.8,0.,4.8
1979-07-28 03:05:19.910 ,7,0,3.,4.8,1.,4.8,0.,4.8,0.,4.8
1979-07-28 03:05:24.710 ,7,0,0.,4.8,0.,4.8,1.,4.8,0.,4.8
1979-07-28 03:05:29.510 ,7,0,1.,4.8,0.,4.8,0.,4.8,0.,4.8
1979-07-28 03:05:34.310 ,7,0,4.,4.8,0.,4.8,0.,4.8,0.,4.8
1979-07-28 03:05:39.110 ,7,0,3.,4.8,0.,4.8,0.,4.8,0.,4.8
1979-07-28 03:05:43.910 ,7,0,2.,4.8,0.,4.8,0.,4.8,0.,4.8
1979-07-28 03:05:48.710 ,7,0,1.,4.8,0.,4.8,0.,4.8,0.,4.8
1979-07-28 03:05:53.510 ,7,0,1.,4.8,0.,4.8,0.,4.8,0.,4.8
1979-07-28 03:05:58.310 ,7,0,0.,4.8,0.,4.8,0.,4.8,0.,4.8
1979-07-28 03:06:03.110 ,7,0,3.,4.8,0.,4.8,0.,4.8,0.,4.8
1979-07-28 03:06:07.910 ,7,0,1.,4.8,0.,4.8,0.,4.8,0.,4.8
1979-07-28 03:06:12.710 ,7,0,4.,4.8,0.,4.8,0.,4.8,0.,4.8
1979-07-28 03:06:17.510 ,7,0,1.,4.8,0.,4.8,0.,4.8,0.,4.8
1979-07-28 03:06:22.310 ,6,0,2.,4.8,0.,4.8,0.,4.8,0.,4.8
1979-07-28 03:06:27.110 ,6,0,2.,4.8,0.,4.8,1.,4.8,0.,4.8
1979-07-28 03:06:31.910 ,6,0,4.,4.8,0.,4.8,0.,4.8,0.,4.8
1979-07-28 03:06:36.710 ,6,0,4.,4.8,0.,4.8,1.,4.8,0.,4.8
1979-07-28 03:06:41.510 ,6,0,3.,4.8,0.,4.8,0.,4.8,0.,4.8
1979-07-28 03:06:46.310 ,6,0,3.,4.8,0.,4.8,0.,4.8,0.,4.8
1979-07-28 03:06:51.110 ,6,0,5.,4.8,0.,4.8,0.,4.8,0.,4.8
1979-07-28 03:06:55.910 ,6,0,4.,4.8,0.,4.8,0.,4.8,0.,4.8
1979-07-28 03:07:00.710 ,6,0,3.,4.8,0.,4.8,0.,4.8,0.,4.8
1979-07-28 03:07:05.510 ,6,0,2.,4.8,0.,4.8,1.,4.8,0.,4.8
1979-07-28 03:07:10.310 ,5,0,3.,4.8,0.,4.8,0.,4.8,0.,4.8
1979-07-28 03:07:15.110 ,5,0,1.,4.8,0.,4.8,0.,4.8,0.,4.8
1979-07-28 03:07:19.910 ,5,0,5.,4.8,0.,4.8,0.,4.8,0.,4.8
1979-07-28 03:07:24.710 ,5,0,6.,4.8,0.,4.8,0.,4.8,0.,4.8
1979-07-28 03:07:29.510 ,5,0,6.,4.8,0.,4.8,0.,4.8,0.,4.8
1979-07-28 03:07:34.310 ,5,0,6.,4.8,0.,4.8,0.,4.8,0.,4.8
1979-07-28 03:07:39.110 ,5,0,4.,4.8,0.,4.8,1.,4.8,0.,4.8
1979-07-28 03:07:43.910 ,5,0,6.,4.8,0.,4.8,0.,4.8,0.,4.8
1979-07-28 03:07:48.710 ,5,0,6.,4.8,0.,4.8,0.,4.8,0.,4.8
1979-07-28 03:07:53.510 ,5,0,6.,4.8,0.,4.8,0.,4.8,0.,4.8
1979-07-28 03:07:58.310 ,4,0,2.,4.8,0.,4.8,1.,4.8,0.,4.8
1979-07-28 03:08:03.110 ,4,0,4.,4.8,0.,4.8,0.,4.8,0.,4.8
1979-07-28 03:08:07.910 ,4,0,4.,4.8,0.,4.8,0.,4.8,0.,4.8
1979-07-28 03:08:12.710 ,4,0,8.,4.8,0.,4.8,0.,4.8,0.,4.8
1979-07-28 03:08:17.510 ,4,0,3.,4.8,1.,4.8,0.,4.8,0.,4.8
1979-07-28 03:08:22.310 ,4,0,3.,4.8,0.,4.8,0.,4.8,0.,4.8
1979-07-28 03:08:27.110 ,4,0,2.,4.8,0.,4.8,0.,4.8,0.,4.8
1979-07-28 03:08:31.910 ,4,0,1.,4.8,0.,4.8,0.,4.8,0.,4.8
1979-07-28 03:08:36.710 ,4,0,6.,4.8,0.,4.8,0.,4.8,0.,4.8
1979-07-28 03:08:41.510 ,4,0,6.,4.8,0.,4.8,1.,4.8,0.,4.8
1979-07-28 03:08:46.310 ,3,0,1.,4.8,0.,4.8,0.,4.8,0.,4.8
1979-07-28 03:08:51.110 ,3,0,1.,4.8,0.,4.8,0.,4.8,0.,4.8
1979-07-28 03:08:55.910 ,3,0,2.,4.8,0.,4.8,0.,4.8,0.,4.8
1979-07-28 03:09:00.710 ,3,0,0.,4.8,0.,4.8,0.,4.8,0.,4.8
1979-07-28 03:09:05.510 ,3,0,1.,4.8,0.,4.8,0.,4.8,0.,4.8
1979-07-28 03:09:10.310 ,3,0,3.,4.8,0.,4.8,0.,4.8,0.,4.8
1979-07-28 03:09:15.110 ,3,0,3.,4.8,0.,4.8,0.,4.8,0.,4.8
1979-07-28 03:09:19.910 ,3,0,7.,4.8,0.,4.8,0.,4.8,0.,4.8
1979-07-28 03:09:24.710 ,3,0,2.,4.8,0.,4.8,0.,4.8,0.,4.8
1979-07-28 03:09:29.510 ,3,0,3.,4.8,0.,4.8,0.,4.8,0.,4.8
1979-07-28 03:09:34.310 ,2,0,4.,4.8,0.,4.8,0.,4.8,0.,4.8
1979-07-28 03:09:39.110 ,2,0,5.,4.8,0.,4.8,0.,4.8,0.,4.8
1979-07-28 03:09:43.910 ,2,0,10.,4.8,0.,4.8,0.,4.8,0.,4.8
1979-07-28 03:09:48.710 ,2,0,5.,4.8,0.,4.8,0.,4.8,0.,4.8
1979-07-28 03:09:53.510 ,2,0,1.,4.8,0.,4.8,0.,4.8,0.,4.8
1979-07-28 03:09:58.310 ,2,0,2.,4.8,0.,4.8,0.,4.8,0.,4.8
1979-07-28 03:10:03.110 ,2,0,4.,4.8,0.,4.8,1.,4.8,0.,4.8
1979-07-28 03:10:07.910 ,2,0,4.,4.8,0.,4.8,1.,4.8,0.,4.8
1979-07-28 03:10:12.710 ,2,0,3.,4.8,0.,4.8,0.,4.8,0.,4.8
1979-07-28 03:10:17.510 ,2,0,5.,4.8,0.,4.8,0.,4.8,0.,4.8
1979-07-28 03:10:22.310 ,1,0,3.,4.8,0.,4.8,0.,4.8,0.,4.8
1979-07-28 03:10:27.110 ,1,0,3.,4.8,0.,4.8,0.,4.8,0.,4.8
1979-07-28 03:10:31.910 ,1,0,9.,4.8,0.,4.8,0.,4.8,0.,4.8
1979-07-28 03:10:36.710 ,1,0,2.,4.8,0.,4.8,0.,4.8,0.,4.8
1979-07-28 03:10:41.510 ,1,0,5.,4.8,0.,4.8,0.,4.8,0.,4.8
1979-07-28 03:10:46.310 ,1,0,6.,4.8,0.,4.8,0.,4.8,0.,4.8
1979-07-28 03:10:51.110 ,1,0,2.,4.8,0.,4.8,0.,4.8,0.,4.8
1979-07-28 03:10:55.910 ,1,0,5.,4.8,0.,4.8,0.,4.8,0.,4.8
1979-07-28 03:11:00.710 ,1,0,7.,4.8,0.,4.8,0.,4.8,0.,4.8
1979-07-28 03:11:05.510 ,1,0,4.,4.8,0.,4.8,0.,4.8,0.,4.8
1979-07-28 03:11:10.310 ,0,0,4.,4.8,0.,4.8,0.,4.8,0.,4.8
1979-07-28 03:11:15.110 ,0,0,3.,4.8,0.,4.8,0.,4.8,0.,4.8
1979-07-28 03:11:19.910 ,0,0,1.,4.8,0.,4.8,0.,4.8,0.,4.8
1979-07-28 03:11:24.710 ,0,0,3.,4.8,0.,4.8,0.,4.8,0.,4.8
1979-07-28 03:11:29.510 ,0,0,3.,4.8,0.,4.8,0.,4.8,0.,4.8
1979-07-28 03:11:34.310 ,0,0,4.,4.8,0.,4.8,1.,4.8,0.,4.8
1979-07-28 03:11:39.110 ,0,0,7.,4.8,0.,4.8,0.,4.8,0.,4.8
1979-07-28 03:11:43.910 ,0,0,0.,4.8,0.,4.8,0.,4.8,0.,4.8
1979-07-28 03:11:48.710 ,0,0,2.,4.8,0.,4.8,1.,4.8,0.,4.8
1979-07-28 03:11:53.510 ,0,0,4.,4.8,0.,4.8,0.,4.8,0.,4.8
1979-07-28 03:11:58.310 ,0,0,6.,4.8,0.,4.8,0.,4.8,0.,4.8
1979-07-28 03:12:03.110 ,0,0,3.,4.8,0.,4.8,0.,4.8,0.,4.8
1979-07-28 03:12:07.910 ,0,0,2.,4.8,0.,4.8,0.,4.8,0.,4.8
1979-07-28 03:12:12.710 ,0,0,3.,4.8,0.,4.8,1.,4.8,0.,4.8
1979-07-28 03:12:17.510 ,0,0,2.,4.8,1.,4.8,0.,4.8,0.,4.8
1979-07-28 03:12:22.310 ,0,0,5.,4.8,0.,4.8,0.,4.8,0.,4.8
1979-07-28 03:12:27.110 ,0,0,4.,4.8,0.,4.8,1.,4.8,0.,4.8
1979-07-28 03:12:31.910 ,0,0,3.,4.8,0.,4.8,1.,4.8,0.,4.8
1979-07-28 03:12:36.710 ,0,0,3.,4.8,1.,4.8,0.,4.8,0.,4.8
1979-07-28 03:12:41.510 ,0,0,6.,4.8,0.,4.8,0.,4.8,0.,4.8
1979-07-28 03:12:46.310 ,1,0,2.,4.8,0.,4.8,1.,4.8,0.,4.8
1979-07-28 03:12:51.110 ,1,0,3.,4.8,0.,4.8,0.,4.8,0.,4.8
1979-07-28 03:12:55.910 ,1,0,3.,4.8,0.,4.8,0.,4.8,0.,4.8
1979-07-28 03:13:00.710 ,1,0,7.,4.8,0.,4.8,0.,4.8,0.,4.8
1979-07-28 03:13:05.510 ,1,0,2.,4.8,0.,4.8,0.,4.8,0.,4.8
1979-07-28 03:13:10.310 ,1,0,5.,4.8,0.,4.8,0.,4.8,0.,4.8
1979-07-28 03:13:15.110 ,1,0,7.,4.8,0.,4.8,0.,4.8,0.,4.8
1979-07-28 03:13:19.910 ,1,0,2.,4.8,0.,4.8,0.,4.8,0.,4.8
1979-07-28 03:13:24.710 ,1,0,7.,4.8,0.,4.8,0.,4.8,0.,4.8
1979-07-28 03:13:29.510 ,1,0,1.,4.8,0.,4.8,0.,4.8,0.,4.8
1979-07-28 03:13:34.310 ,2,0,4.,4.8,0.,4.8,0.,4.8,0.,4.8
1979-07-28 03:13:39.110 ,2,0,2.,4.8,0.,4.8,0.,4.8,0.,4.8
1979-07-28 03:13:43.910 ,2,0,3.,4.8,0.,4.8,0.,4.8,0.,4.8
1979-07-28 03:13:48.710 ,2,0,7.,4.8,0.,4.8,0.,4.8,0.,4.8
1979-07-28 03:13:53.510 ,2,0,1.,4.8,0.,4.8,0.,4.8,0.,4.8
1979-07-28 03:13:58.310 ,2,0,4.,4.8,0.,4.8,0.,4.8,0.,4.8
1979-07-28 03:14:03.110 ,2,0,7.,4.8,0.,4.8,1.,4.8,0.,4.8
1979-07-28 03:14:07.910 ,2,0,0.,4.8,0.,4.8,1.,4.8,0.,4.8
1979-07-28 03:14:12.710 ,2,0,2.,4.8,0.,4.8,0.,4.8,0.,4.8
1979-07-28 03:14:17.510 ,2,0,2.,4.8,0.,4.8,0.,4.8,0.,4.8
1979-07-28 03:14:22.310 ,3,0,8.,4.8,0.,4.8,0.,4.8,0.,4.8
1979-07-28 03:14:27.110 ,3,0,4.,4.8,0.,4.8,0.,4.8,0.,4.8
1979-07-28 03:14:31.910 ,3,0,2.,4.8,0.,4.8,0.,4.8,0.,4.8
1979-07-28 03:14:36.710 ,3,0,3.,4.8,1.,4.8,0.,4.8,0.,4.8
1979-07-28 03:14:41.510 ,3,0,2.,4.8,1.,4.8,0.,4.8,0.,4.8
1979-07-28 03:14:46.310 ,3,0,2.,4.8,0.,4.8,0.,4.8,0.,4.8
1979-07-28 03:14:51.110 ,3,0,1.,4.8,0.,4.8,0.,4.8,0.,4.8
1979-07-28 03:14:55.910 ,3,0,3.,4.8,1.,4.8,1.,4.8,0.,4.8
1979-07-28 03:15:00.710 ,3,0,1.,4.8,0.,4.8,0.,4.8,0.,4.8
1979-07-28 03:15:05.510 ,3,0,7.,4.8,0.,4.8,0.,4.8,0.,4.8
1979-07-28 03:15:10.310 ,4,0,2.,4.8,0.,4.8,0.,4.8,0.,4.8
1979-07-28 03:15:15.110 ,4,0,4.,4.8,0.,4.8,0.,4.8,0.,4.8
1979-07-28 03:15:19.910 ,4,0,2.,4.8,0.,4.8,0.,4.8,0.,4.8
1979-07-28 03:15:24.710 ,4,0,2.,4.8,0.,4.8,1.,4.8,0.,4.8
1979-07-28 03:15:29.510 ,4,0,8.,4.8,0.,4.8,0.,4.8,0.,4.8
1979-07-28 03:15:34.310 ,4,0,2.,4.8,0.,4.8,2.,4.8,0.,4.8
1979-07-28 03:15:39.110 ,4,0,5.,4.8,0.,4.8,0.,4.8,0.,4.8
1979-07-28 03:15:43.910 ,4,0,4.,4.8,0.,4.8,0.,4.8,0.,4.8
1979-07-28 03:15:48.710 ,4,0,2.,4.8,0.,4.8,0.,4.8,0.,4.8
1979-07-28 03:15:53.510 ,4,0,3.,4.8,0.,4.8,0.,4.8,0.,4.8
1979-07-28 03:15:58.310 ,5,0,5.,4.8,0.,4.8,0.,4.8,0.,4.8
1979-07-28 03:16:03.110 ,5,0,8.,4.8,1.,4.8,0.,4.8,0.,4.8
1979-07-28 03:16:07.910 ,5,0,7.,4.8,0.,4.8,0.,4.8,0.,4.8
1979-07-28 03:16:12.710 ,5,0,4.,4.8,0.,4.8,0.,4.8,0.,4.8
1979-07-28 03:16:17.510 ,5,0,4.,4.8,0.,4.8,1.,4.8,0.,4.8
1979-07-28 03:16:22.310 ,5,0,3.,4.8,0.,4.8,0.,4.8,0.,4.8
1979-07-28 03:16:27.110 ,5,0,2.,4.8,0.,4.8,0.,4.8,0.,4.8
1979-07-28 03:16:31.910 ,5,0,2.,4.8,0.,4.8,0.,4.8,0.,4.8
1979-07-28 03:16:36.710 ,5,0,3.,4.8,0.,4.8,0.,4.8,0.,4.8
1979-07-28 03:16:41.510 ,5,0,5.,4.8,0.,4.8,0.,4.8,0.,4.8
1979-07-28 03:16:46.310 ,6,0,6.,4.8,0.,4.8,0.,4.8,0.,4.8
1979-07-28 03:16:51.110 ,6,0,5.,4.8,0.,4.8,1.,4.8,0.,4.8
1979-07-28 03:16:55.910 ,6,0,3.,4.8,0.,4.8,1.,4.8,0.,4.8
1979-07-28 03:17:00.710 ,6,0,4.,4.8,0.,4.8,1.,4.8,0.,4.8
1979-07-28 03:17:05.510 ,6,0,10.,4.8,0.,4.8,0.,4.8,0.,4.8
1979-07-28 03:17:10.310 ,6,0,6.,4.8,0.,4.8,0.,4.8,0.,4.8
1979-07-28 03:17:15.110 ,6,0,4.,4.8,0.,4.8,0.,4.8,0.,4.8
1979-07-28 03:17:19.910 ,6,0,4.,4.8,0.,4.8,0.,4.8,0.,4.8
1979-07-28 03:17:24.710 ,6,0,4.,4.8,0.,4.8,0.,4.8,0.,4.8
1979-07-28 03:17:29.510 ,6,0,0.,4.8,0.,4.8,0.,4.8,0.,4.8
1979-07-28 03:17:34.310 ,7,0,4.,4.8,0.,4.8,0.,4.8,0.,4.8
1979-07-28 03:17:39.110 ,7,0,2.,4.8,0.,4.8,0.,4.8,0.,4.8
1979-07-28 03:17:43.910 ,7,0,0.,4.8,0.,4.8,0.,4.8,0.,4.8
1979-07-28 03:17:48.710 ,7,0,1.,4.8,0.,4.8,0.,4.8,0.,4.8
1979-07-28 03:17:53.510 ,7,0,1.,4.8,0.,4.8,0.,4.8,0.,4.8
1979-07-28 03:17:58.310 ,7,0,3.,4.8,0.,4.8,0.,4.8,0.,4.8
1979-07-28 03:18:03.110 ,7,0,1.,4.8,0.,4.8,0.,4.8,0.,4.8
1979-07-28 03:18:07.910 ,7,0,2.,4.8,0.,4.8,1.,4.8,0.,4.8
1979-07-28 03:18:12.710 ,7,0,0.,4.8,0.,4.8,0.,4.8,0.,4.8
1979-07-28 03:18:17.510 ,7,0,2.,4.8,0.,4.8,0.,4.8,0.,4.8
1979-07-28 03:18:22.310 ,7,0,2.,4.8,0.,4.8,0.,4.8,0.,4.8
1979-07-28 03:18:27.110 ,7,0,1.,4.8,0.,4.8,1.,4.8,0.,4.8
1979-07-28 03:18:31.910 ,7,0,5.,4.8,0.,4.8,0.,4.8,0.,4.8
1979-07-28 03:18:36.710 ,7,0,3.,4.8,0.,4.8,0.,4.8,0.,4.8
1979-07-28 03:18:41.510 ,7,0,1.,4.8,0.,4.8,0.,4.8,0.,4.8
1979-07-28 03:18:46.310 ,7,0,1.,4.8,0.,4.8,0.,4.8,0.,4.8
1979-07-28 03:18:51.110 ,7,0,2.,4.8,0.,4.8,0.,4.8,0.,4.8
1979-07-28 03:18:55.910 ,7,0,2.,4.8,0.,4.8,0.,4.8,0.,4.8
1979-07-28 03:19:00.710 ,7,0,2.,4.8,0.,4.8,0.,4.8,0.,4.8
1979-07-28 03:19:05.510 ,7,0,1.,4.8,0.,4.8,0.,4.8,0.,4.8
1979-07-28 03:19:10.310 ,6,0,1.,4.8,0.,4.8,0.,4.8,0.,4.8
1979-07-28 03:19:15.110 ,6,0,1.,4.8,0.,4.8,0.,4.8,0.,4.8
1979-07-28 03:19:19.910 ,6,0,2.,4.8,0.,4.8,0.,4.8,0.,4.8
1979-07-28 03:19:24.710 ,6,0,1.,4.8,0.,4.8,0.,4.8,0.,4.8
1979-07-28 03:19:29.510 ,6,0,2.,4.8,0.,4.8,0.,4.8,0.,4.8
1979-07-28 03:19:34.310 ,6,0,4.,4.8,0.,4.8,0.,4.8,0.,4.8
1979-07-28 03:19:39.110 ,6,0,6.,4.8,0.,4.8,0.,4.8,0.,4.8
1979-07-28 03:19:43.910 ,6,0,2.,4.8,0.,4.8,0.,4.8,0.,4.8
1979-07-28 03:19:48.710 ,6,0,1.,4.8,0.,4.8,0.,4.8,0.,4.8
1979-07-28 03:19:53.510 ,6,0,3.,4.8,0.,4.8,0.,4.8,0.,4.8
1979-07-28 03:19:58.310 ,5,0,3.,4.8,0.,4.8,0.,4.8,0.,4.8
1979-07-28 03:20:03.110 ,5,0,3.,4.8,0.,4.8,0.,4.8,0.,4.8
1979-07-28 03:20:07.910 ,5,0,3.,4.8,0.,4.8,0.,4.8,0.,4.8
1979-07-28 03:20:12.710 ,5,0,8.,4.8,0.,4.8,0.,4.8,0.,4.8
1979-07-28 03:20:17.510 ,5,0,2.,4.8,0.,4.8,0.,4.8,0.,4.8
1979-07-28 03:20:22.310 ,5,0,3.,4.8,1.,4.8,0.,4.8,0.,4.8
1979-07-28 03:20:27.110 ,5,0,5.,4.8,0.,4.8,0.,4.8,0.,4.8
1979-07-28 03:20:31.910 ,5,0,1.,4.8,0.,4.8,0.,4.8,0.,4.8
1979-07-28 03:20:36.710 ,5,0,4.,4.8,0.,4.8,1.,4.8,0.,4.8
1979-07-28 03:20:41.510 ,5,0,2.,4.8,0.,4.8,0.,4.8,0.,4.8
1979-07-28 03:20:46.310 ,4,0,3.,4.8,0.,4.8,1.,4.8,0.,4.8
1979-07-28 03:20:51.110 ,4,0,4.,4.8,0.,4.8,0.,4.8,0.,4.8
1979-07-28 03:20:55.910 ,4,0,3.,4.8,0.,4.8,0.,4.8,0.,4.8
1979-07-28 03:21:00.710 ,4,0,8.,4.8,0.,4.8,0.,4.8,0.,4.8
1979-07-28 03:21:05.510 ,4,0,3.,4.8,0.,4.8,0.,4.8,0.,4.8
1979-07-28 03:21:10.310 ,4,0,6.,4.8,0.,4.8,0.,4.8,0.,4.8
1979-07-28 03:21:15.110 ,4,0,7.,4.8,0.,4.8,0.,4.8,0.,4.8
1979-07-28 03:21:19.910 ,4,0,3.,4.8,0.,4.8,0.,4.8,0.,4.8
1979-07-28 03:21:24.710 ,4,0,4.,4.8,0.,4.8,0.,4.8,0.,4.8
1979-07-28 03:21:29.510 ,4,0,5.,4.8,0.,4.8,0.,4.8,0.,4.8
1979-07-28 03:21:34.310 ,3,0,6.,4.8,0.,4.8,0.,4.8,0.,4.8
1979-07-28 03:21:39.110 ,3,0,2.,4.8,0.,4.8,0.,4.8,0.,4.8
1979-07-28 03:21:43.910 ,3,0,4.,4.8,0.,4.8,0.,4.8,0.,4.8
1979-07-28 03:21:48.710 ,3,0,1.,4.8,1.,4.8,0.,4.8,0.,4.8
1979-07-28 03:21:53.510 ,3,0,5.,4.8,0.,4.8,0.,4.8,0.,4.8
1979-07-28 03:21:58.310 ,3,0,6.,4.8,0.,4.8,0.,4.8,0.,4.8
1979-07-28 03:22:03.110 ,3,0,6.,4.8,0.,4.8,0.,4.8,0.,4.8
1979-07-28 03:22:07.910 ,3,0,2.,4.8,0.,4.8,0.,4.8,0.,4.8
1979-07-28 03:22:12.710 ,3,0,2.,4.8,1.,4.8,0.,4.8,0.,4.8
1979-07-28 03:22:17.510 ,3,0,4.,4.8,0.,4.8,0.,4.8,0.,4.8
1979-07-28 03:22:22.310 ,2,0,3.,4.8,0.,4.8,0.,4.8,0.,4.8
1979-07-28 03:22:27.110 ,2,0,0.,4.8,0.,4.8,0.,4.8,0.,4.8
1979-07-28 03:22:31.910 ,2,0,6.,4.8,0.,4.8,0.,4.8,0.,4.8
1979-07-28 03:22:36.710 ,2,0,4.,4.8,0.,4.8,0.,4.8,0.,4.8
1979-07-28 03:22:41.510 ,2,0,4.,4.8,0.,4.8,0.,4.8,0.,4.8
1979-07-28 03:22:46.310 ,2,0,6.,4.8,0.,4.8,1.,4.8,0.,4.8
1979-07-28 03:22:51.110 ,2,0,1.,4.8,0.,4.8,0.,4.8,0.,4.8
1979-07-28 03:22:55.910 ,2,0,7.,4.8,0.,4.8,0.,4.8,0.,4.8
1979-07-28 03:23:00.710 ,2,0,4.,4.8,0.,4.8,0.,4.8,0.,4.8
1979-07-28 03:23:05.510 ,2,0,2.,4.8,0.,4.8,0.,4.8,0.,4.8
1979-07-28 03:23:10.310 ,0,0,3.,4.8,0.,4.8,1.,4.8,0.,4.8
1979-07-28 03:23:15.110 ,0,0,1.,4.8,0.,4.8,0.,4.8,0.,4.8
1979-07-28 03:23:19.910 ,0,0,4.,4.8,0.,4.8,0.,4.8,0.,4.8
1979-07-28 03:23:24.710 ,0,0,7.,4.8,0.,4.8,0.,4.8,0.,4.8
1979-07-28 03:23:29.510 ,0,0,5.,4.8,0.,4.8,0.,4.8,0.,4.8
1979-07-28 03:23:34.310 ,0,0,,0,,0,,0,,0
1979-07-28 03:23:39.110 ,0,0,,0,,0,,0,,0
1979-07-28 03:23:43.910 ,0,0,,0,,0,,0,,0
1979-07-28 03:23:48.710 ,0,0,,0,,0,,0,,0
1979-07-28 03:23:53.510 ,0,0,,0,,0,,0,,0
1979-07-28 03:24:42.110 ,0,0,,0,,0,,0,,0
1979-07-28 03:24:46.910 ,0,0,,0,,0,,0,,0
1979-07-28 03:24:51.710 ,0,0,,0,,0,,0,,0
1979-07-28 03:24:56.510 ,0,0,,0,,0,,0,,0
1979-07-28 03:25:01.310 ,0,0,1.,4.8,0.,4.8,0.,4.8,0.,4.8
1979-07-28 03:24:46.310 ,0,0,4.,4.8,0.,4.8,0.,4.8,0.,4.8
1979-07-28 03:24:51.110 ,0,0,8.,4.8,0.,4.8,0.,4.8,0.,4.8
1979-07-28 03:24:55.910 ,0,0,4.,4.8,0.,4.8,0.,4.8,0.,4.8
1979-07-28 03:25:00.710 ,0,0,6.,4.8,0.,4.8,0.,4.8,0.,4.8
1979-07-28 03:25:05.510 ,0,0,5.,4.8,0.,4.8,0.,4.8,0.,4.8
1979-07-28 03:25:10.310 ,0,0,4.,4.8,1.,4.8,0.,4.8,0.,4.8
1979-07-28 03:25:15.110 ,0,0,2.,4.8,0.,4.8,1.,4.8,0.,4.8
1979-07-28 03:25:19.910 ,0,0,6.,4.8,0.,4.8,1.,4.8,0.,4.8
1979-07-28 03:25:24.710 ,0,0,1.,4.8,0.,4.8,0.,4.8,0.,4.8
1979-07-28 03:25:29.510 ,0,0,1.,4.8,0.,4.8,0.,4.8,0.,4.8
1979-07-28 03:25:34.310 ,1,0,3.,4.8,0.,4.8,0.,4.8,0.,4.8
1979-07-28 03:25:39.110 ,1,0,1.,4.8,0.,4.8,0.,4.8,0.,4.8
1979-07-28 03:25:43.910 ,1,0,7.,4.8,0.,4.8,1.,4.8,0.,4.8
1979-07-28 03:25:48.710 ,1,0,6.,4.8,0.,4.8,1.,4.8,0.,4.8
1979-07-28 03:25:53.510 ,1,0,3.,4.8,0.,4.8,0.,4.8,0.,4.8
1979-07-28 03:25:58.310 ,1,0,3.,4.8,0.,4.8,0.,4.8,0.,4.8
1979-07-28 03:26:03.110 ,1,0,4.,4.8,0.,4.8,0.,4.8,0.,4.8
1979-07-28 03:26:07.910 ,1,0,5.,4.8,0.,4.8,0.,4.8,0.,4.8
1979-07-28 03:26:12.710 ,1,0,6.,4.8,0.,4.8,0.,4.8,0.,4.8
1979-07-28 03:26:17.510 ,1,0,5.,4.8,0.,4.8,0.,4.8,0.,4.8
1979-07-28 03:26:22.310 ,2,0,2.,4.8,0.,4.8,0.,4.8,0.,4.8
1979-07-28 03:26:27.110 ,2,0,4.,4.8,0.,4.8,1.,4.8,0.,4.8
1979-07-28 03:26:31.910 ,2,0,1.,4.8,0.,4.8,0.,4.8,0.,4.8
1979-07-28 03:26:36.710 ,2,0,7.,4.8,0.,4.8,0.,4.8,0.,4.8
1979-07-28 03:26:41.510 ,2,0,2.,4.8,0.,4.8,0.,4.8,0.,4.8
1979-07-28 03:26:46.310 ,2,0,2.,4.8,0.,4.8,0.,4.8,0.,4.8
1979-07-28 03:26:51.110 ,2,0,4.,4.8,0.,4.8,0.,4.8,0.,4.8
1979-07-28 03:26:55.910 ,2,0,1.,4.8,0.,4.8,0.,4.8,0.,4.8
1979-07-28 03:27:00.710 ,2,0,6.,4.8,0.,4.8,0.,4.8,0.,4.8
1979-07-28 03:27:05.510 ,2,0,1.,4.8,0.,4.8,1.,4.8,0.,4.8
1979-07-28 03:27:10.310 ,3,0,5.,4.8,0.,4.8,0.,4.8,0.,4.8
1979-07-28 03:27:15.110 ,3,0,3.,4.8,0.,4.8,0.,4.8,0.,4.8
1979-07-28 03:27:19.910 ,3,0,4.,4.8,0.,4.8,0.,4.8,0.,4.8
1979-07-28 03:27:24.710 ,3,0,4.,4.8,0.,4.8,0.,4.8,0.,4.8
1979-07-28 03:27:29.510 ,3,0,3.,4.8,0.,4.8,0.,4.8,0.,4.8
1979-07-28 03:27:34.310 ,3,0,6.,4.8,0.,4.8,0.,4.8,0.,4.8
1979-07-28 03:27:39.110 ,3,0,7.,4.8,0.,4.8,0.,4.8,0.,4.8
1979-07-28 03:27:43.910 ,3,0,2.,4.8,0.,4.8,0.,4.8,0.,4.8
1979-07-28 03:27:48.710 ,3,0,4.,4.8,0.,4.8,0.,4.8,0.,4.8
1979-07-28 03:27:53.510 ,3,0,4.,4.8,0.,4.8,0.,4.8,0.,4.8
1979-07-28 03:27:58.310 ,4,0,4.,4.8,0.,4.8,0.,4.8,0.,4.8
1979-07-28 03:28:03.110 ,4,0,1.,4.8,0.,4.8,0.,4.8,0.,4.8
1979-07-28 03:28:07.910 ,4,0,6.,4.8,0.,4.8,0.,4.8,0.,4.8
1979-07-28 03:28:12.710 ,4,0,6.,4.8,0.,4.8,0.,4.8,0.,4.8
1979-07-28 03:28:17.510 ,4,0,7.,4.8,0.,4.8,0.,4.8,0.,4.8
1979-07-28 03:28:22.310 ,4,0,6.,4.8,0.,4.8,0.,4.8,0.,4.8
1979-07-28 03:28:27.110 ,4,0,1.,4.8,0.,4.8,0.,4.8,0.,4.8
1979-07-28 03:28:31.910 ,4,0,4.,4.8,0.,4.8,0.,4.8,0.,4.8
1979-07-28 03:28:36.710 ,4,0,5.,4.8,0.,4.8,0.,4.8,0.,4.8
1979-07-28 03:28:41.510 ,4,0,4.,4.8,0.,4.8,0.,4.8,0.,4.8
1979-07-28 03:28:46.310 ,5,0,4.,4.8,0.,4.8,1.,4.8,0.,4.8
1979-07-28 03:28:51.110 ,5,0,4.,4.8,0.,4.8,0.,4.8,0.,4.8
1979-07-28 03:28:55.910 ,5,0,6.,4.8,0.,4.8,0.,4.8,0.,4.8
1979-07-28 03:29:00.710 ,5,0,1.,4.8,0.,4.8,0.,4.8,0.,4.8
1979-07-28 03:29:05.510 ,5,0,5.,4.8,0.,4.8,0.,4.8,0.,4.8
1979-07-28 03:29:10.310 ,5,0,5.,4.8,0.,4.8,0.,4.8,0.,4.8
1979-07-28 03:29:15.110 ,5,0,3.,4.8,0.,4.8,0.,4.8,0.,4.8
1979-07-28 03:29:19.910 ,5,0,3.,4.8,0.,4.8,0.,4.8,0.,4.8
1979-07-28 03:29:24.710 ,5,0,3.,4.8,0.,4.8,0.,4.8,0.,4.8
1979-07-28 03:29:29.510 ,5,0,3.,4.8,0.,4.8,0.,4.8,0.,4.8
1979-07-28 03:29:34.310 ,6,0,3.,4.8,0.,4.8,1.,4.8,0.,4.8
1979-07-28 03:29:39.110 ,6,0,9.,4.8,0.,4.8,0.,4.8,0.,4.8
1979-07-28 03:29:43.910 ,6,0,3.,4.8,0.,4.8,0.,4.8,0.,4.8
1979-07-28 03:29:48.710 ,6,0,2.,4.8,0.,4.8,0.,4.8,0.,4.8
1979-07-28 03:29:53.510 ,6,0,4.,4.8,0.,4.8,0.,4.8,0.,4.8
1979-07-28 03:29:58.310 ,6,0,4.,4.8,1.,4.8,0.,4.8,0.,4.8
1979-07-28 03:30:03.110 ,6,0,5.,4.8,0.,4.8,0.,4.8,0.,4.8
1979-07-28 03:30:07.910 ,6,0,5.,4.8,0.,4.8,0.,4.8,0.,4.8
1979-07-28 03:30:12.710 ,6,0,5.,4.8,1.,4.8,0.,4.8,0.,4.8
1979-07-28 03:30:17.510 ,6,0,5.,4.8,0.,4.8,0.,4.8,0.,4.8
1979-07-28 03:30:22.310 ,7,0,4.,4.8,0.,4.8,0.,4.8,0.,4.8
1979-07-28 03:30:27.110 ,7,0,2.,4.8,0.,4.8,0.,4.8,0.,4.8
1979-07-28 03:30:31.910 ,7,0,0.,4.8,0.,4.8,0.,4.8,0.,4.8
1979-07-28 03:30:36.710 ,7,0,3.,4.8,0.,4.8,0.,4.8,0.,4.8
1979-07-28 03:30:41.510 ,7,0,4.,4.8,0.,4.8,0.,4.8,0.,4.8
1979-07-28 03:30:46.310 ,7,0,3.,4.8,0.,4.8,0.,4.8,0.,4.8
1979-07-28 03:30:51.110 ,7,0,3.,4.8,0.,4.8,0.,4.8,0.,4.8
1979-07-28 03:30:55.910 ,7,0,0.,4.8,0.,4.8,0.,4.8,0.,4.8
1979-07-28 03:31:00.710 ,7,0,4.,4.8,0.,4.8,0.,4.8,0.,4.8
1979-07-28 03:31:05.510 ,7,0,1.,4.8,0.,4.8,0.,4.8,0.,4.8
1979-07-28 03:31:10.310 ,3,1,2.,4.8,0.,4.8,0.,4.8,0.,4.8
1979-07-28 03:31:15.110 ,3,1,2.,4.8,0.,4.8,0.,4.8,0.,4.8
1979-07-28 03:31:19.910 ,3,1,1.,4.8,0.,4.8,1.,4.8,0.,4.8
1979-07-28 03:31:24.710 ,3,1,4.,4.8,0.,4.8,0.,4.8,0.,4.8
1979-07-28 03:31:29.510 ,3,1,6.,4.8,0.,4.8,0.,4.8,0.,4.8
1979-07-28 03:31:34.310 ,0,1,6.,4.8,0.,4.8,0.,4.8,0.,4.8
1979-07-28 03:31:39.110 ,0,1,4.,4.8,0.,4.8,0.,4.8,0.,4.8
1979-07-28 03:31:43.910 ,0,1,5.,4.8,0.,4.8,0.,4.8,0.,4.8
1979-07-28 03:31:48.710 ,0,1,5.,4.8,0.,4.8,0.,4.8,0.,4.8
1979-07-28 03:31:53.510 ,0,1,0.,4.8,0.,4.8,0.,4.8,0.,4.8
1979-07-28 03:31:58.310 ,4,1,4.,4.8,0.,4.8,0.,4.8,0.,4.8
1979-07-28 03:32:03.110 ,4,1,3.,4.8,0.,4.8,0.,4.8,0.,4.8
1979-07-28 03:32:07.910 ,4,1,3.,4.8,0.,4.8,0.,4.8,0.,4.8
1979-07-28 03:32:12.710 ,4,1,3.,4.8,0.,4.8,0.,4.8,0.,4.8
1979-07-28 03:32:17.510 ,4,1,8.,4.8,0.,4.8,0.,4.8,0.,4.8
1979-07-28 03:32:22.310 ,7,1,3.,4.8,0.,4.8,0.,4.8,0.,4.8
1979-07-28 03:32:27.110 ,7,1,3.,4.8,0.,4.8,0.,4.8,0.,4.8
1979-07-28 03:32:31.910 ,7,1,2.,4.8,0.,4.8,0.,4.8,0.,4.8
1979-07-28 03:32:36.710 ,7,1,3.,4.8,0.,4.8,0.,4.8,0.,4.8
1979-07-28 03:32:41.510 ,7,1,1.,4.8,0.,4.8,0.,4.8,0.,4.8
1979-07-28 03:32:46.310 ,3,1,2.,4.8,0.,4.8,1.,4.8,0.,4.8
1979-07-28 03:32:51.110 ,3,1,4.,4.8,0.,4.8,0.,4.8,0.,4.8
1979-07-28 03:32:55.910 ,3,1,3.,4.8,0.,4.8,0.,4.8,0.,4.8
1979-07-28 03:33:00.710 ,3,1,6.,4.8,0.,4.8,0.,4.8,0.,4.8
1979-07-28 03:33:05.510 ,3,1,4.,4.8,0.,4.8,1.,4.8,0.,4.8
1979-07-28 03:33:10.310 ,0,1,3.,4.8,0.,4.8,0.,4.8,0.,4.8
1979-07-28 03:33:15.110 ,0,1,4.,4.8,0.,4.8,0.,4.8,0.,4.8
1979-07-28 03:33:19.910 ,0,1,3.,4.8,1.,4.8,0.,4.8,0.,4.8
1979-07-28 03:33:24.710 ,0,1,8.,4.8,0.,4.8,0.,4.8,0.,4.8
1979-07-28 03:33:29.510 ,0,1,5.,4.8,0.,4.8,0.,4.8,0.,4.8
1979-07-28 03:33:34.310 ,4,1,1.,4.8,0.,4.8,0.,4.8,0.,4.8
1979-07-28 03:33:39.110 ,4,1,3.,4.8,0.,4.8,0.,4.8,0.,4.8
1979-07-28 03:33:43.910 ,4,1,6.,4.8,0.,4.8,0.,4.8,0.,4.8
1979-07-28 03:33:48.710 ,4,1,3.,4.8,0.,4.8,1.,4.8,0.,4.8
1979-07-28 03:33:53.510 ,4,1,4.,4.8,0.,4.8,0.,4.8,0.,4.8